Powrót do katalogu

FREGAT DEB

LostUNKNOWN
NORAD 45928·DEBRIS·🇷🇺 Russia

Wystrzelony Jul 18, 2011 z Baikonur Cosmodrome

Loading…

Następne Przeloty (najbliższe 24 godziny)

TLE

NieaktualneSource: Space-Track

Epoka: Aug 2, 2020, 09:34 UTC

1 45928U 11037ES  20215.39871576  .00150108  00000-0  65552-1 0  9995
2 45928  51.2231 205.6145 1129879 180.0606 180.0282 12.57311028  2996

Śledź FREGAT DEB w czasie rzeczywistym z AllMySat

Download on the App Store